Home   Weather   Tiruvarur   Past weeks

Flag for India Past Weather in Tiruvarur, Tamil Nadu, India — Yesterday and Last 2 Weeks

Now
77 °F

Fog.


Feels Like: 78 °F
Forecast: 75 / 86 °F
Wind: 5 mph from Northeast

Location: Tiruchchirapalli

Current Time: Dec 5, 2016 at 1:57:52 am

Latest Report: Dec 5, 2016 at 1:30 am


Visibility: 2 mi

Pressure: 29.92 "Hg

Humidity: 89%

Dew Point: 73 °F

Location of TiruvarurLocation

Past Weather in Tiruvarur — Graph

°F

Tiruvarur Temperature Yesterday

Maximum temperature yesterday: 90 °F (at 2:00 pm)
Minimum temperature yesterday: 73 °F (at 1:30 am)
Average temperature yesterday: 80 °F

High & Low Weather Summary for the Past Weeks

 TemperatureHumidityPressure
High95 °F (Nov 27, 3:30 pm)100% (Dec 2, 5:30 pm)30.01 "Hg (Dec 2, 5:30 pm)
Low64 °F (Dec 1, 2:30 pm)28% (Nov 27, 3:30 pm)29.74 "Hg (Nov 20, 2:30 pm)
Average79 °F71%29.86 "Hg
* Reported Nov 20 12:30 am — Dec 5 12:30 am, Tiruvarur, Weather by CustomWeather, © 2016

Note: Actual official high and low records may vary slightly from our data, if they occured in-between our weather recording intervals... More about our weather records

Advertising

Tiruvarur Weather History for the Previous 24 Hours

Scroll right to see more
 ConditionsComfort  
Time TempWeatherWind HumidityBarometerVisibility
12:30 am
Mon, Dec 5
77 °FFog.6 mph89%29.95 "Hg2 mi
12:00 am77 °FFog.6 mph89%29.98 "Hg2 mi
11:30 pm
Sun, Dec 4
79 °FFog.6 mph79%29.98 "Hg2 mi
11:00 pm79 °FFog.3 mph79%29.98 "Hg2 mi
10:30 pm79 °FFog.3 mph79%29.98 "Hg2 mi
10:00 pm79 °FFog.5 mph79%29.98 "Hg3 mi
9:30 pm79 °FFog.5 mph79%29.98 "Hg3 mi
9:00 pm81 °FFog.6 mph74%29.98 "Hg3 mi
8:30 pm81 °FFog.6 mph74%29.95 "Hg3 mi
8:00 pm81 °FHaze.7 mph74%29.95 "Hg3 mi
7:30 pm81 °FHaze.7 mph74%29.95 "Hg3 mi
7:00 pm81 °FHaze.6 mph74%29.92 "Hg3 mi
6:30 pm82 °FHaze.9 mph70%29.92 "Hg3 mi
6:00 pm84 °FHaze.10 mph66%29.89 "Hg3 mi
5:30 pm86 °FHaze.9 mph59%29.89 "Hg3 mi
5:00 pm88 °FHaze.9 mph55%29.86 "Hg3 mi
4:30 pm88 °FHaze.9 mph55%29.86 "Hg3 mi
4:00 pm90 °FScattered clouds.7 mph52%29.86 "Hg3 mi
3:30 pm90 °FScattered clouds.7 mph52%29.86 "Hg3 mi
3:00 pm90 °FScattered clouds.6 mph52%29.86 "Hg3 mi
2:30 pm90 °FScattered clouds.7 mph52%29.89 "Hg2 mi
2:00 pm90 °FScattered clouds.10 mph52%29.89 "Hg2 mi
1:30 pm88 °FScattered clouds.8 mph59%29.92 "Hg2 mi
1:00 pm88 °FScattered clouds.9 mph59%29.92 "Hg2 mi
12:30 pm86 °FScattered clouds.8 mph62%29.95 "Hg2 mi
12:00 pm86 °FScattered clouds.10 mph66%29.95 "Hg2 mi
11:30 am84 °FScattered clouds.12 mph70%29.98 "Hg2 mi
11:00 am84 °FScattered clouds.12 mph70%29.98 "Hg1 mi
10:30 am84 °FScattered clouds.8 mph70%29.98 "Hg1 mi
10:00 am82 °FScattered clouds.8 mph74%30.01 "Hg1 mi
9:30 am81 °FFog.8 mph79%30.01 "Hg1 mi
9:00 am81 °FFog.5 mph84%30.01 "Hg1 mi
8:00 am77 °FFog.3 mph89%29.98 "Hg1 mi
7:30 am75 °FFog.2 mph94%29.98 "Hg1 mi
7:00 am75 °FFog.2 mph94%29.95 "Hg1 mi
6:30 am73 °FFog.2 mph100%29.95 "Hg1 mi
6:00 am73 °FFog.2 mph100%29.92 "Hg1 mi
5:30 am73 °FFog.2 mph100%29.92 "Hg1 mi
5:00 am73 °FFog.2 mph100%29.92 "Hg1 mi
4:30 am73 °FFog.2 mph100%29.92 "Hg1 mi
4:00 am73 °FFog.3 mph94%29.92 "Hg1 mi
3:30 am73 °FFog.3 mph94%29.92 "Hg1 mi
3:00 am73 °FFog.3 mph94%29.92 "Hg1 mi
2:30 am73 °FFog.3 mph94%29.92 "Hg1 mi
2:00 am73 °FFog.3 mph89%29.92 "Hg1 mi
1:30 am73 °FFog.3 mph89%29.92 "Hg2 mi
1:00 am75 °FFog.2 mph83%29.95 "Hg2 mi
Weather by CustomWeather, © 2016

See weather overviewHow to use our weather pages